[[{"header":{"parameterUnit":"m.s-1","parameterCategory":1,"la1":30.2991,"la2":30.254,"lo1":-89.0895,"lo2":-89.0444,"dy":0.0017,"dx":0.0017,"nx":28,"ny":28,"refTime":"2024-04-09T21:00:00:Z","depth":0,"parameterNumber":2,"parameterNumberName":"U-component_of_WINDS"},"data":[0,0,0,0,0,0,0,0,0,0,0,0,0,0,0,0,0,0,0,0,0,0,0,0,0,0,0,0,0,0,0,0,0,0,0,0,0,0,0,0,0,0,0,0,0,0,0,0,0,0,0,0,0,0,0,0,0,0,-5.1009,-5.101,0,-5.1029,-5.1029,-5.1029,-5.0969,-5.0967,-5.0965,-5.0963,-5.0981,-5.0983,-5.0985,0,0,0,0,0,0,0,0,0,0,0,0,0,-5.0922,-5.0924,-5.1009,-5.101,-5.101,-5.1029,-5.1029,-5.1029,-5.0969,-5.0967,-5.0965,-5.0962,-5.098,-5.0983,-5.0986,0,0,0,0,0,0,0,0,0,0,0,0,0,-5.0952,-5.0924,-5.1009,-5.0982,-5.098,-5.1029,-5.1029,-5.1029,-5.0969,-5.0967,-5.0964,-5.0961,-5.098,-5.0983,-5.0986,-5.1061,0,0,-5.0996,-5.0997,0,0,0,0,0,0,0,0,-5.0951,-5.0956,-5.0986,-5.0984,-5.0982,-5.0993,-5.1004,-5.104,-5.097,-5.0973,-5.0963,-5.096,-5.0987,-5.099,-5.0999,-5.1062,-5.1063,-5.0996,-5.0998,-5.1,-5.1001,0,0,0,0,0,0,0,-5.0949,-5.0954,-5.1017,-5.0986,-5.0984,-5.0969,-5.0971,-5.1011,-5.0995,-5.0973,-5.0969,-5.0972,-5.0986,-5.0996,-5.0999,-5.1063,-5.0996,-5.0999,-5.1001,-5.1002,-5.119,-5.1193,0,0,0,0,0,0,-5.095,-5.0953,-5.1016,-5.1017,-5.0959,-5.0973,-5.0975,-5.0992,-5.0995,-5.0993,-5.0974,-5.0969,-5.0992,-5.0996,-5.1,-5.1088,-5.1,-5.1003,-5.1005,-5.1187,-5.1191,-5.1194,0,0,0,0,0,0,-5.0948,-5.0956,-5.1015,-5.0984,-5.0991,-5.0978,-5.0998,-5.0994,-5.1005,-5.0996,-5.0993,-5.0988,-5.099,-5.0995,-5.1047,-5.1087,-5.1004,-5.1007,-5.1184,-5.1188,-5.1193,-5.1264,0,0,0,0,0,0,-5.0946,-5.0956,-5.0984,-5.0985,-5.0993,-5.1062,-5.1001,-5.0997,-5.1011,-5.1004,-5.1008,-5.1006,-5.0988,-5.1042,-5.105,-5.109,-5.101,-5.118,-5.1186,-5.1191,-5.1258,-5.1271,-5.1281,0,0,0,0,0,-5.0943,-5.1002,-5.0985,-5.0993,-5.1027,-5.1064,-5.1068,-5.1048,-5.1014,-5.1042,-5.1037,-5.1006,-5.1083,-5.1048,-5.1056,-5.1098,-5.1177,-5.1184,-5.1191,-5.1253,-5.1268,-5.1281,0,0,0,0,0,0,-5.1003,-5.1002,-5.0983,-5.1044,-5.1055,-5.1054,-5.1088,-5.1064,-5.1084,-5.1077,-5.1051,-5.1052,-5.1108,-5.1109,-5.107,-5.1172,-5.1124,-5.1133,-5.1169,-5.1183,-5.1195,-5.1191,-5.1012,0,0,0,0,0,-5.1025,-5.1055,-5.1052,-5.1107,-5.1113,-5.1101,-5.1116,-5.11,-5.1109,-5.1113,-5.1112,-5.1122,-5.1149,-5.1167,-5.1191,-5.126,-5.126,-5.1293,-5.1305,-5.1315,-5.1321,-5.1358,-5.1373,-5.1217,-5.1217,-5.1216,0,0,-5.1067,-5.107,-5.109,-5.1119,-5.1125,-5.1158,-5.1104,-5.114,-5.1164,-5.1118,-5.1166,-5.1167,-5.1178,-5.1238,-5.1265,-5.124,-5.1365,-5.1323,-5.1331,-5.1332,-5.1367,-5.1382,-5.1395,-5.1221,-5.122,-5.122,0,0,-5.116,-5.1166,-5.1212,-5.1221,-5.1232,-5.1224,-5.1236,-5.124,-5.1238,-5.1287,-5.1254,-5.1283,-5.133,-5.1339,-5.1349,-5.1453,-5.1424,-5.1462,-5.152,-5.1557,-5.1569,-5.158,-5.1615,-5.1628,-5.1469,-5.1469,-5.147,0,-5.121,-5.1257,-5.1239,-5.1278,-5.1291,-5.1255,-5.1302,-5.1312,-5.133,-5.1341,-5.1314,-5.1374,-5.1378,-5.1441,-5.1466,-5.1477,-5.1489,-5.1458,-5.1569,-5.158,-5.159,-5.1623,-5.1636,-5.1474,-5.1473,-5.1473,-5.1472,0,-5.1319,-5.1353,-5.1389,-5.141,-5.1429,-5.1471,-5.1459,-5.1481,-5.1465,-5.1461,-5.1512,-5.1517,-5.1542,-5.1557,-5.1541,-5.1618,-5.1603,-5.1574,-5.1524,-5.1609,-5.164,-5.1653,-5.148,-5.1478,-5.1477,-5.1476,0,0,-5.1444,-5.1458,-5.1471,-5.148,-5.1493,-5.1519,-5.1563,-5.1588,-5.1607,-5.1623,-5.1658,-5.1701,-5.1675,-5.1687,-5.1673,-5.1706,-5.1786,-5.1672,-5.1672,-5.1691,-5.1871,-5.189,-5.1905,-5.177,-5.1772,-5.1774,-5.187,0,-5.1534,-5.1606,-5.1593,-5.1664,-5.1696,-5.1665,-5.1703,-5.1715,-5.1713,-5.174,-5.1739,-5.1769,-5.1733,-5.174,-5.1772,-5.177,-5.1821,-5.1763,-5.18,-5.1802,-5.1794,-5.1922,-5.1941,-5.2031,-5.1882,-5.1884,-5.1885,0,-5.1646,-5.1669,-5.1743,-5.1754,-5.1767,-5.18,-5.1824,-5.1851,-5.1866,-5.1863,-5.188,-5.186,-5.1904,-5.1858,-5.1917,-5.1878,-5.1894,-5.1896,-5.1899,-5.1898,-5.1845,-5.1921,-5.2059,-5.2071,-5.1904,-5.1903,-5.1902,0,-5.1728,-5.1777,-5.1828,-5.1838,-5.1852,-5.1876,-5.1883,-5.1896,-5.1913,-5.1935,-5.1946,-5.1973,-5.1987,-5.2009,-5.1998,-5.1966,-5.2059,-5.2012,-5.2056,-5.2057,-5.2073,-5.2071,-5.2211,-5.209,-5.209,-5.2089,-5.2089,0,-5.1827,-5.1873,-5.1865,-5.1895,-5.1948,-5.1934,-5.1986,-5.1989,-5.2001,-5.2033,-5.201,-5.2039,-5.2025,-5.2055,-5.2047,-5.2097,-5.2104,-5.2102,-5.2099,-5.2102,-5.2102,-5.2108,-5.21,-5.2093,-5.2092,-5.2091,-5.2091,0,-5.1923,-5.192,-5.1973,-5.1984,-5.1989,-5.2026,-5.2035,-5.2065,-5.2064,-5.2105,-5.2113,-5.2112,-5.2145,-5.2139,-5.2175,-5.217,-5.2233,-5.2223,-5.2227,-5.2224,-5.2267,-5.2262,-5.2413,-5.2432,-5.2301,-5.2303,-5.2304,0,-5.1984,-5.202,-5.2036,-5.2056,-5.2066,-5.2098,-5.2117,-5.2107,-5.2127,-5.215,-5.2177,-5.2209,-5.2234,-5.229,-5.2291,-5.232,-5.231,-5.2361,-5.2313,-5.2316,-5.2307,-5.2304,-5.2307,-5.2368,-5.237,-5.2371,-5.2372,0,-5.2093,-5.2091,-5.2119,-5.2148,-5.2172,-5.2194,-5.2213,-5.2232,-5.2224,-5.2248,-5.2284,-5.2303,-5.2343,-5.2375,-5.2403,-5.241,-5.239,-5.2389,-5.24,-5.2401,-5.2401,-5.2399,-5.2249,-5.2383,-5.2382,-5.2381,-5.2381,-5.238,-5.2172,-5.2202,-5.2219,-5.2252,-5.2267,-5.2287,-5.2316,-5.2321,-5.235,-5.2382,-5.2375,-5.2415,-5.2432,-5.2468,-5.2479,-5.2511,-5.2491,-5.2508,-5.2511,-5.2515,-5.2519,-5.24,-5.2516,-5.2516,-5.2515,-5.2515,-5.2515,0,-5.2277,-5.2288,-5.2319,-5.2348,-5.2375,-5.2358,-5.238,-5.2403,-5.2439,-5.2457,-5.2484,-5.2526,-5.2558,-5.2565,-5.2596,-5.262,-5.2611,-5.2628,-5.2624,-5.2626,-5.2535,-5.2521,-5.2634,-5.2634,-5.2634,-5.2634,-5.2634,-5.2634,-5.2334,-5.2385,-5.2386,-5.2445,-5.2455,-5.2495,-5.2509,-5.2528,-5.2543,-5.2591,-5.2619,-5.2624,-5.2638,-5.2671,-5.27,-5.2702,-5.2713,-5.2733,-5.273,-5.2644,-5.2632,-5.262,-5.2607,-5.2736,-5.2736,-5.2817,-5.2818,-5.2819]},{"header":{"parameterUnit":"m.s-1","parameterCategory":1,"la1":30.2991,"la2":30.254,"lo1":-89.0895,"lo2":-89.0444,"dy":0.0017,"dx":0.0017,"nx":28,"ny":28,"refTime":"2024-04-09T21:00:00:Z","depth":0,"parameterNumber":3,"parameterNumberName":"V-component_of_WINDS"},"data":[0,0,0,0,0,0,0,0,0,0,0,0,0,0,0,0,0,0,0,0,0,0,0,0,0,0,0,0,0,0,0,0,0,0,0,0,0,0,0,0,0,0,0,0,0,0,0,0,0,0,0,0,0,0,0,0,0,0,2.2254,2.2255,0,2.2264,2.2264,2.2264,2.2289,2.229,2.2291,2.2291,2.2296,2.2296,2.2295,0,0,0,0,0,0,0,0,0,0,0,0,0,2.2259,2.2258,2.2254,2.2255,2.2255,2.2264,2.2264,2.2264,2.2289,2.229,2.2291,2.2291,2.2296,2.2296,2.2295,0,0,0,0,0,0,0,0,0,0,0,0,0,2.2261,2.2258,2.2254,2.2269,2.227,2.2264,2.2264,2.2264,2.2289,2.229,2.2291,2.2292,2.2296,2.2296,2.2295,2.2275,0,0,2.2294,2.2293,0,0,0,0,0,0,0,0,2.2261,2.2261,2.2266,2.2268,2.2269,2.2276,2.2267,2.2267,2.2289,2.2282,2.2291,2.2292,2.2289,2.2289,2.2288,2.2275,2.2275,2.2293,2.2293,2.2293,2.2293,0,0,0,0,0,0,0,2.2261,2.2261,2.2258,2.2266,2.2268,2.2274,2.2276,2.2267,2.228,2.2282,2.2284,2.2285,2.229,2.2289,2.2289,2.2275,2.2294,2.2293,2.2293,2.2292,2.2251,2.225,0,0,0,0,0,0,2.2259,2.226,2.2258,2.2258,2.2267,2.2274,2.2275,2.2273,2.228,2.2282,2.2285,2.2286,2.229,2.2289,2.2289,2.2269,2.2293,2.2292,2.2292,2.2251,2.2251,2.225,0,0,0,0,0,0,2.2259,2.2258,2.2257,2.226,2.226,2.2273,2.227,2.2273,2.2272,2.2282,2.2284,2.2282,2.229,2.229,2.228,2.2269,2.2292,2.2292,2.2252,2.2251,2.225,2.2226,0,0,0,0,0,0,2.2259,2.2258,2.225,2.226,2.226,2.2247,2.227,2.2272,2.2272,2.2274,2.228,2.2282,2.2291,2.228,2.2279,2.2269,2.2291,2.2253,2.2252,2.2251,2.2227,2.2224,2.2221,0,0,0,0,0,2.2259,2.2241,2.2249,2.2249,2.225,2.2247,2.2247,2.2259,2.2271,2.2263,2.2271,2.2281,2.2271,2.2279,2.2278,2.2267,2.2254,2.2252,2.2251,2.2229,2.2224,2.2221,0,0,0,0,0,0,2.2226,2.2242,2.2252,2.2236,2.2241,2.2251,2.2241,2.2253,2.2253,2.2255,2.2269,2.227,2.2259,2.2262,2.2271,2.225,2.2265,2.2262,2.2248,2.2244,2.2241,2.224,2.2291,0,0,0,0,0,2.2218,2.2215,2.2228,2.2213,2.2215,2.2228,2.2227,2.2237,2.2241,2.2242,2.2248,2.2251,2.2249,2.2247,2.2245,2.2229,2.2232,2.2221,2.2218,2.2215,2.2213,2.2208,2.2205,2.2244,2.2244,2.2244,0,0,2.2199,2.2207,2.2204,2.2207,2.2211,2.2208,2.2229,2.2223,2.2221,2.2241,2.2233,2.2238,2.2242,2.223,2.2225,2.2232,2.2203,2.2213,2.221,2.221,2.2206,2.2202,2.2199,2.2243,2.2243,2.2243,0,0,2.2164,2.2169,2.2159,2.2165,2.2172,2.2182,2.218,2.219,2.2196,2.2188,2.2204,2.2202,2.2197,2.2201,2.2202,2.2175,2.2186,2.2174,2.2156,2.2151,2.2148,2.2146,2.2138,2.2135,2.2172,2.2172,2.2172,0,2.2139,2.2135,2.2152,2.2147,2.2149,2.2171,2.2162,2.2166,2.2171,2.2173,2.2181,2.2179,2.2183,2.2174,2.2169,2.2168,2.2167,2.2173,2.2148,2.2145,2.2143,2.2136,2.2133,2.217,2.2171,2.2171,2.2171,0,2.2106,2.2104,2.2095,2.2104,2.2105,2.2098,2.2115,2.2114,2.2125,2.2134,2.2129,2.2136,2.2137,2.2136,2.2145,2.213,2.2135,2.2145,2.216,2.2137,2.2131,2.2129,2.2168,2.2169,2.2169,2.217,0,0,2.2047,2.207,2.2066,2.2073,2.2086,2.2084,2.2079,2.2084,2.2084,2.2089,2.2086,2.2085,2.2097,2.2098,2.2108,2.2104,2.2086,2.2116,2.2117,2.2112,2.2073,2.2066,2.2062,2.2095,2.2094,2.2094,2.2074,0,2.2016,2.201,2.2028,2.2017,2.2017,2.204,2.2037,2.2045,2.2054,2.2056,2.2066,2.2066,2.208,2.2082,2.2079,2.2089,2.2079,2.2091,2.2093,2.2093,2.2091,2.2058,2.2049,2.203,2.2071,2.207,2.207,0,2.1977,2.1984,2.1975,2.1993,2.1994,2.199,2.1999,2.1999,2.201,2.2018,2.2023,2.2036,2.2034,2.2049,2.2048,2.2056,2.2058,2.2064,2.2063,2.2064,2.208,2.2059,2.2023,2.2021,2.2066,2.2066,2.2067,0,2.1938,2.1944,2.1941,2.1946,2.1966,2.1964,2.1972,2.1984,2.1987,2.1994,2.1997,2.2003,2.2006,2.201,2.2026,2.2035,2.2024,2.2039,2.2031,2.2031,2.2026,2.2026,2.1991,2.2027,2.2027,2.2027,2.2027,0,2.1901,2.1895,2.1925,2.1922,2.1918,2.1939,2.1933,2.1944,2.1955,2.1956,2.1976,2.1976,2.1996,2.2,2.2012,2.201,2.2011,2.2018,2.2021,2.2016,2.2016,2.2018,2.202,2.2026,2.2026,2.2026,2.2027,0,2.1855,2.1875,2.1873,2.1895,2.19,2.1896,2.1914,2.1914,2.1927,2.1929,2.193,2.195,2.1955,2.1972,2.198,2.1989,2.1984,2.199,2.1981,2.1983,2.1975,2.1976,2.194,2.1937,2.1973,2.1973,2.1973,0,2.1831,2.1827,2.185,2.1854,2.1862,2.1867,2.1872,2.1894,2.1898,2.1913,2.1911,2.1919,2.1926,2.1933,2.1948,2.1956,2.1963,2.195,2.1964,2.196,2.1965,2.1965,2.1966,2.1946,2.1946,2.1946,2.1945,0,2.1786,2.1797,2.1804,2.1816,2.1823,2.1832,2.1843,2.1844,2.1869,2.1873,2.1881,2.1887,2.1898,2.1906,2.1917,2.1925,2.194,2.1941,2.194,2.1935,2.1931,2.1935,2.1974,2.1942,2.1942,2.1942,2.1942,2.1943,2.1751,2.1751,2.1769,2.1778,2.1789,2.18,2.1802,2.1818,2.1825,2.1837,2.185,2.1856,2.1871,2.1888,2.1896,2.1902,2.1909,2.1907,2.1906,2.1906,2.1904,2.1931,2.1904,2.1904,2.1904,2.1904,2.1904,0,2.1709,2.1723,2.1731,2.1748,2.1756,2.1772,2.1786,2.1791,2.1797,2.1811,2.1819,2.1829,2.1838,2.1856,2.1867,2.1868,2.1876,2.1871,2.1871,2.1873,2.1896,2.1897,2.1865,2.1865,2.1865,2.1865,2.1865,2.1865,2.1688,2.1691,2.1705,2.1714,2.1728,2.1736,2.1743,2.1754,2.1766,2.1777,2.1786,2.1799,2.1815,2.1828,2.1837,2.1843,2.1846,2.1839,2.1846,2.1867,2.1871,2.1874,2.1876,2.1839,2.1839,2.1823,2.1823,2.1823]}]]